#datetime,building,power
2022-04-03T00:00:00,mcc,58.81
2022-04-03T00:01:00,mcc,53.66
2022-04-03T00:02:00,mcc,52.27
2022-04-03T00:03:00,mcc,53.91
2022-04-03T00:04:00,mcc,51.55
2022-04-03T00:05:00,mcc,51.81
2022-04-03T00:06:00,mcc,52.61
2022-04-03T00:07:00,mcc,62.08
2022-04-03T00:08:00,mcc,56.51
2022-04-03T00:09:00,mcc,54.27
2022-04-03T00:10:00,mcc,56.29
2022-04-03T00:11:00,mcc,58.63
2022-04-03T00:12:00,mcc,56.05
2022-04-03T00:13:00,mcc,56.16
2022-04-03T00:14:00,mcc,53.66
2022-04-03T00:15:00,mcc,50.02
2022-04-03T00:16:00,mcc,55.38
2022-04-03T00:17:00,mcc,53.02
2022-04-03T00:18:00,mcc,52.73
2022-04-03T00:19:00,mcc,52.68
2022-04-03T00:20:00,mcc,53.39
2022-04-03T00:21:00,mcc,52.70
2022-04-03T00:22:00,mcc,52.40
2022-04-03T00:23:00,mcc,50.08
2022-04-03T00:24:00,mcc,48.61
2022-04-03T00:25:00,mcc,54.43
2022-04-03T00:26:00,mcc,64.20
2022-04-03T00:27:00,mcc,48.87
2022-04-03T00:28:00,mcc,47.10
2022-04-03T00:29:00,mcc,52.14
2022-04-03T00:30:00,mcc,49.09
2022-04-03T00:31:00,mcc,48.43
2022-04-03T00:32:00,mcc,50.12
2022-04-03T00:33:00,mcc,60.90
2022-04-03T00:34:00,mcc,45.62
2022-04-03T00:35:00,mcc,46.89
2022-04-03T00:36:00,mcc,45.57
2022-04-03T00:37:00,mcc,57.36
2022-04-03T00:38:00,mcc,44.51
2022-04-03T00:39:00,mcc,44.17
2022-04-03T00:40:00,mcc,44.86
2022-04-03T00:41:00,mcc,42.43
2022-04-03T00:42:00,mcc,41.81
2022-04-03T00:43:00,mcc,40.92
2022-04-03T00:44:00,mcc,41.94
2022-04-03T00:45:00,mcc,41.61
2022-04-03T00:46:00,mcc,39.41
2022-04-03T00:47:00,mcc,37.55
2022-04-03T00:48:00,mcc,38.90
2022-04-03T00:49:00,mcc,37.72
2022-04-03T00:50:00,mcc,37.59
2022-04-03T00:51:00,mcc,48.05
2022-04-03T00:52:00,mcc,41.47
2022-04-03T00:53:00,mcc,44.05
2022-04-03T00:54:00,mcc,39.20
2022-04-03T00:55:00,mcc,38.50
2022-04-03T00:56:00,mcc,38.97
2022-04-03T00:57:00,mcc,38.98
2022-04-03T00:58:00,mcc,42.84
2022-04-03T00:59:00,mcc,42.96
2022-04-03T01:00:00,mcc,42.90
2022-04-03T01:01:00,mcc,43.22
2022-04-03T01:02:00,mcc,41.39
2022-04-03T01:03:00,mcc,41.45
2022-04-03T01:04:00,mcc,41.72
2022-04-03T01:05:00,mcc,42.15
2022-04-03T01:06:00,mcc,44.32
2022-04-03T01:07:00,mcc,41.80
2022-04-03T01:08:00,mcc,40.96
2022-04-03T01:09:00,mcc,38.85
2022-04-03T01:10:00,mcc,38.71
2022-04-03T01:11:00,mcc,38.69
2022-04-03T01:12:00,mcc,40.72
2022-04-03T01:13:00,mcc,39.97
2022-04-03T01:14:00,mcc,39.73
2022-04-03T01:15:00,mcc,40.06
2022-04-03T01:16:00,mcc,40.15
2022-04-03T01:17:00,mcc,42.18
2022-04-03T01:18:00,mcc,39.95
2022-04-03T01:19:00,mcc,39.13
2022-04-03T01:20:00,mcc,39.51
2022-04-03T01:21:00,mcc,39.31
2022-04-03T01:22:00,mcc,38.70
2022-04-03T01:23:00,mcc,37.69
2022-04-03T01:24:00,mcc,42.07
2022-04-03T01:25:00,mcc,45.95
2022-04-03T01:26:00,mcc,43.59
2022-04-03T01:27:00,mcc,52.08
2022-04-03T01:28:00,mcc,43.04
2022-04-03T01:29:00,mcc,42.67
2022-04-03T01:30:00,mcc,44.98
2022-04-03T01:31:00,mcc,46.45
2022-04-03T01:32:00,mcc,45.18
2022-04-03T01:33:00,mcc,49.97
2022-04-03T01:34:00,mcc,49.36
2022-04-03T01:35:00,mcc,48.77
2022-04-03T01:36:00,mcc,47.47
2022-04-03T01:37:00,mcc,47.82
2022-04-03T01:38:00,mcc,46.43
2022-04-03T01:39:00,mcc,38.50
2022-04-03T01:40:00,mcc,40.06
2022-04-03T01:41:00,mcc,39.92
2022-04-03T01:42:00,mcc,40.59
2022-04-03T01:43:00,mcc,41.80
2022-04-03T01:44:00,mcc,42.28
2022-04-03T01:45:00,mcc,49.95
2022-04-03T01:46:00,mcc,43.31
2022-04-03T01:47:00,mcc,41.36
2022-04-03T01:48:00,mcc,40.91
2022-04-03T01:49:00,mcc,41.78
2022-04-03T01:50:00,mcc,41.08
2022-04-03T01:51:00,mcc,42.47
2022-04-03T01:52:00,mcc,44.50
2022-04-03T01:53:00,mcc,41.48
2022-04-03T01:54:00,mcc,42.01
2022-04-03T01:55:00,mcc,41.95
2022-04-03T01:56:00,mcc,41.32
2022-04-03T01:57:00,mcc,46.29
2022-04-03T01:58:00,mcc,44.46
2022-04-03T01:59:00,mcc,43.48
2022-04-03T02:00:00,mcc,43.80
2022-04-03T02:01:00,mcc,38.91
2022-04-03T02:02:00,mcc,39.12
2022-04-03T02:03:00,mcc,39.45
2022-04-03T02:04:00,mcc,48.52
2022-04-03T02:05:00,mcc,43.28
2022-04-03T02:06:00,mcc,41.99
2022-04-03T02:07:00,mcc,40.37
2022-04-03T02:08:00,mcc,40.12
2022-04-03T02:09:00,mcc,42.10
2022-04-03T02:10:00,mcc,39.95
2022-04-03T02:11:00,mcc,41.14
2022-04-03T02:12:00,mcc,44.16
2022-04-03T02:13:00,mcc,43.76
2022-04-03T02:14:00,mcc,40.04
2022-04-03T02:15:00,mcc,40.06
2022-04-03T02:16:00,mcc,39.09
2022-04-03T02:17:00,mcc,39.71
2022-04-03T02:18:00,mcc,44.42
2022-04-03T02:19:00,mcc,43.21
2022-04-03T02:20:00,mcc,42.11
2022-04-03T02:21:00,mcc,42.32
2022-04-03T02:22:00,mcc,44.08
2022-04-03T02:23:00,mcc,43.07
2022-04-03T02:24:00,mcc,45.35
2022-04-03T02:25:00,mcc,42.32
2022-04-03T02:26:00,mcc,39.70
2022-04-03T02:27:00,mcc,38.13
2022-04-03T02:28:00,mcc,39.54
2022-04-03T02:29:00,mcc,41.21
2022-04-03T02:30:00,mcc,42.08
2022-04-03T02:31:00,mcc,42.70
2022-04-03T02:32:00,mcc,44.41
2022-04-03T02:33:00,mcc,41.49
2022-04-03T02:34:00,mcc,38.77
2022-04-03T02:35:00,mcc,38.85
2022-04-03T02:36:00,mcc,39.27
2022-04-03T02:37:00,mcc,41.53
2022-04-03T02:38:00,mcc,47.63
2022-04-03T02:39:00,mcc,45.99
2022-04-03T02:40:00,mcc,49.13
2022-04-03T02:41:00,mcc,48.77
2022-04-03T02:42:00,mcc,41.26
2022-04-03T02:43:00,mcc,41.36
2022-04-03T02:44:00,mcc,39.83
2022-04-03T02:45:00,mcc,42.54
2022-04-03T02:46:00,mcc,42.54
2022-04-03T02:47:00,mcc,42.09
2022-04-03T02:48:00,mcc,44.59
2022-04-03T02:49:00,mcc,43.17
2022-04-03T02:50:00,mcc,43.44
2022-04-03T02:51:00,mcc,43.56
2022-04-03T02:52:00,mcc,42.01
2022-04-03T02:53:00,mcc,41.49
2022-04-03T02:54:00,mcc,40.58
2022-04-03T02:55:00,mcc,41.99
2022-04-03T02:56:00,mcc,44.59
2022-04-03T02:57:00,mcc,42.29
2022-04-03T02:58:00,mcc,40.75
2022-04-03T02:59:00,mcc,51.39
2022-04-03T03:00:00,mcc,39.61
2022-04-03T03:01:00,mcc,40.83
2022-04-03T03:02:00,mcc,43.08
2022-04-03T03:03:00,mcc,42.95
2022-04-03T03:04:00,mcc,45.08
2022-04-03T03:05:00,mcc,41.60
2022-04-03T03:06:00,mcc,40.24
2022-04-03T03:07:00,mcc,40.79
2022-04-03T03:08:00,mcc,40.06
2022-04-03T03:09:00,mcc,40.62
2022-04-03T03:10:00,mcc,40.84
2022-04-03T03:11:00,mcc,40.80
2022-04-03T03:12:00,mcc,41.08
2022-04-03T03:13:00,mcc,40.58
2022-04-03T03:14:00,mcc,50.90
2022-04-03T03:15:00,mcc,54.59
2022-04-03T03:16:00,mcc,50.78
2022-04-03T03:17:00,mcc,48.51
2022-04-03T03:18:00,mcc,38.84
2022-04-03T03:19:00,mcc,36.74
2022-04-03T03:20:00,mcc,37.42
2022-04-03T03:21:00,mcc,36.97
2022-04-03T03:22:00,mcc,37.88
2022-04-03T03:23:00,mcc,41.88
2022-04-03T03:24:00,mcc,40.08
2022-04-03T03:25:00,mcc,40.66
2022-04-03T03:26:00,mcc,38.22
2022-04-03T03:27:00,mcc,39.41
2022-04-03T03:28:00,mcc,38.63
2022-04-03T03:29:00,mcc,37.84
2022-04-03T03:30:00,mcc,35.04
2022-04-03T03:31:00,mcc,37.46
2022-04-03T03:32:00,mcc,37.99
2022-04-03T03:33:00,mcc,35.90
2022-04-03T03:34:00,mcc,36.74
2022-04-03T03:35:00,mcc,38.01
2022-04-03T03:36:00,mcc,45.41
2022-04-03T03:37:00,mcc,38.22
2022-04-03T03:38:00,mcc,40.49
2022-04-03T03:39:00,mcc,42.37
2022-04-03T03:40:00,mcc,40.27
2022-04-03T03:41:00,mcc,40.24
2022-04-03T03:42:00,mcc,39.85
2022-04-03T03:43:00,mcc,39.22
2022-04-03T03:44:00,mcc,40.99
2022-04-03T03:45:00,mcc,39.64
2022-04-03T03:46:00,mcc,38.36
2022-04-03T03:47:00,mcc,42.93
2022-04-03T03:48:00,mcc,39.59
2022-04-03T03:49:00,mcc,38.55
2022-04-03T03:50:00,mcc,38.28
2022-04-03T03:51:00,mcc,36.77
2022-04-03T03:52:00,mcc,38.87
2022-04-03T03:53:00,mcc,37.77
2022-04-03T03:54:00,mcc,37.25
2022-04-03T03:55:00,mcc,37.09
2022-04-03T03:56:00,mcc,34.43
2022-04-03T03:57:00,mcc,35.07
2022-04-03T03:58:00,mcc,34.27
2022-04-03T03:59:00,mcc,35.03
2022-04-03T04:00:00,mcc,37.52
2022-04-03T04:01:00,mcc,35.45
2022-04-03T04:02:00,mcc,34.66
2022-04-03T04:03:00,mcc,34.59
2022-04-03T04:04:00,mcc,36.36
2022-04-03T04:05:00,mcc,36.68
2022-04-03T04:06:00,mcc,39.20
2022-04-03T04:07:00,mcc,39.26
2022-04-03T04:08:00,mcc,39.39
2022-04-03T04:09:00,mcc,39.09
2022-04-03T04:10:00,mcc,40.11
2022-04-03T04:11:00,mcc,41.62
2022-04-03T04:12:00,mcc,39.75
2022-04-03T04:13:00,mcc,39.73
2022-04-03T04:14:00,mcc,47.81
2022-04-03T04:15:00,mcc,39.94
2022-04-03T04:16:00,mcc,40.08
2022-04-03T04:17:00,mcc,37.88
2022-04-03T04:18:00,mcc,37.50
2022-04-03T04:19:00,mcc,40.32
2022-04-03T04:20:00,mcc,36.81
2022-04-03T04:21:00,mcc,35.04
2022-04-03T04:22:00,mcc,36.26
2022-04-03T04:23:00,mcc,35.90
2022-04-03T04:24:00,mcc,37.65
2022-04-03T04:25:00,mcc,34.55
2022-04-03T04:26:00,mcc,35.47
2022-04-03T04:27:00,mcc,36.95
2022-04-03T04:28:00,mcc,37.26
2022-04-03T04:29:00,mcc,39.24
2022-04-03T04:30:00,mcc,36.84
2022-04-03T04:31:00,mcc,38.51
2022-04-03T04:32:00,mcc,39.78
2022-04-03T04:33:00,mcc,38.49
2022-04-03T04:34:00,mcc,37.98
2022-04-03T04:35:00,mcc,38.06
2022-04-03T04:36:00,mcc,38.78
2022-04-03T04:37:00,mcc,42.94
2022-04-03T04:38:00,mcc,40.45
2022-04-03T04:39:00,mcc,41.59
2022-04-03T04:40:00,mcc,42.54
2022-04-03T04:41:00,mcc,39.81
2022-04-03T04:42:00,mcc,38.40
2022-04-03T04:43:00,mcc,40.03
2022-04-03T04:44:00,mcc,38.28
2022-04-03T04:45:00,mcc,38.19
2022-04-03T04:46:00,mcc,37.41
2022-04-03T04:47:00,mcc,36.50
2022-04-03T04:48:00,mcc,37.20
2022-04-03T04:49:00,mcc,35.33
2022-04-03T04:50:00,mcc,35.31
2022-04-03T04:51:00,mcc,37.22
2022-04-03T04:52:00,mcc,45.64
2022-04-03T04:53:00,mcc,37.31
2022-04-03T04:54:00,mcc,35.82
2022-04-03T04:55:00,mcc,35.40
2022-04-03T04:56:00,mcc,37.69
2022-04-03T04:57:00,mcc,35.38
2022-04-03T04:58:00,mcc,36.98
2022-04-03T04:59:00,mcc,38.45
2022-04-03T05:00:00,mcc,38.29
2022-04-03T05:01:00,mcc,37.61
2022-04-03T05:02:00,mcc,37.66
2022-04-03T05:03:00,mcc,36.79
2022-04-03T05:04:00,mcc,40.81
2022-04-03T05:05:00,mcc,39.74
2022-04-03T05:06:00,mcc,38.33
2022-04-03T05:07:00,mcc,37.08
2022-04-03T05:08:00,mcc,37.60
2022-04-03T05:09:00,mcc,40.13
2022-04-03T05:10:00,mcc,39.23
2022-04-03T05:11:00,mcc,39.36
2022-04-03T05:12:00,mcc,38.16
2022-04-03T05:13:00,mcc,37.39
2022-04-03T05:14:00,mcc,37.60
2022-04-03T05:15:00,mcc,40.50
2022-04-03T05:16:00,mcc,36.80
2022-04-03T05:17:00,mcc,36.60
2022-04-03T05:18:00,mcc,36.62
2022-04-03T05:19:00,mcc,35.07
2022-04-03T05:20:00,mcc,34.41
2022-04-03T05:21:00,mcc,33.95
2022-04-03T05:22:00,mcc,36.24
2022-04-03T05:23:00,mcc,39.94
2022-04-03T05:24:00,mcc,39.58
2022-04-03T05:25:00,mcc,40.17
2022-04-03T05:26:00,mcc,39.78
2022-04-03T05:27:00,mcc,38.53
2022-04-03T05:28:00,mcc,41.17
2022-04-03T05:29:00,mcc,39.17
2022-04-03T05:30:00,mcc,45.94
2022-04-03T05:31:00,mcc,41.13
2022-04-03T05:32:00,mcc,39.22
2022-04-03T05:33:00,mcc,36.68
2022-04-03T05:34:00,mcc,36.57
2022-04-03T05:35:00,mcc,38.21
2022-04-03T05:36:00,mcc,42.38
2022-04-03T05:37:00,mcc,40.77
2022-04-03T05:38:00,mcc,40.78
2022-04-03T05:39:00,mcc,42.09
2022-04-03T05:40:00,mcc,36.33
2022-04-03T05:41:00,mcc,36.74
2022-04-03T05:42:00,mcc,38.37
2022-04-03T05:43:00,mcc,38.44
2022-04-03T05:44:00,mcc,41.11
2022-04-03T05:45:00,mcc,39.74
2022-04-03T05:46:00,mcc,39.24
2022-04-03T05:47:00,mcc,39.87
2022-04-03T05:48:00,mcc,45.20
2022-04-03T05:49:00,mcc,45.63
2022-04-03T05:50:00,mcc,39.46
2022-04-03T05:51:00,mcc,37.51
2022-04-03T05:52:00,mcc,40.38
2022-04-03T05:53:00,mcc,40.57
2022-04-03T05:54:00,mcc,39.49
2022-04-03T05:55:00,mcc,40.77
2022-04-03T05:56:00,mcc,38.06
2022-04-03T05:57:00,mcc,40.44
2022-04-03T05:58:00,mcc,44.60
2022-04-03T05:59:00,mcc,41.64
2022-04-03T06:00:00,mcc,38.91
2022-04-03T06:01:00,mcc,39.06
2022-04-03T06:02:00,mcc,37.59
2022-04-03T06:03:00,mcc,37.12
2022-04-03T06:04:00,mcc,36.88
2022-04-03T06:05:00,mcc,36.26
2022-04-03T06:06:00,mcc,38.62
2022-04-03T06:07:00,mcc,45.41
2022-04-03T06:08:00,mcc,38.10
2022-04-03T06:09:00,mcc,37.35
2022-04-03T06:10:00,mcc,38.09
2022-04-03T06:11:00,mcc,42.27
2022-04-03T06:12:00,mcc,39.64
2022-04-03T06:13:00,mcc,37.87
2022-04-03T06:14:00,mcc,39.66
2022-04-03T06:15:00,mcc,37.92
2022-04-03T06:16:00,mcc,38.57
2022-04-03T06:17:00,mcc,38.45
2022-04-03T06:18:00,mcc,38.24
2022-04-03T06:19:00,mcc,42.35
2022-04-03T06:20:00,mcc,39.70
2022-04-03T06:21:00,mcc,40.93
2022-04-03T06:22:00,mcc,43.23
2022-04-03T06:23:00,mcc,40.02
2022-04-03T06:24:00,mcc,38.93
2022-04-03T06:25:00,mcc,40.82
2022-04-03T06:26:00,mcc,38.34
2022-04-03T06:27:00,mcc,35.56
2022-04-03T06:28:00,mcc,35.30
2022-04-03T06:29:00,mcc,36.17
2022-04-03T06:30:00,mcc,39.23
2022-04-03T06:31:00,mcc,36.95
2022-04-03T06:32:00,mcc,34.75
2022-04-03T06:33:00,mcc,37.22
2022-04-03T06:34:00,mcc,35.45
2022-04-03T06:35:00,mcc,35.42
2022-04-03T06:36:00,mcc,37.41
2022-04-03T06:37:00,mcc,36.40
2022-04-03T06:38:00,mcc,41.11
2022-04-03T06:39:00,mcc,37.62
2022-04-03T06:40:00,mcc,35.30
2022-04-03T06:41:00,mcc,36.90
2022-04-03T06:42:00,mcc,34.99
2022-04-03T06:43:00,mcc,33.51
2022-04-03T06:44:00,mcc,35.13
2022-04-03T06:45:00,mcc,34.51
2022-04-03T06:46:00,mcc,38.27
2022-04-03T06:47:00,mcc,34.65
2022-04-03T06:48:00,mcc,35.33
2022-04-03T06:49:00,mcc,37.56
2022-04-03T06:50:00,mcc,35.19
2022-04-03T06:51:00,mcc,36.51
2022-04-03T06:52:00,mcc,37.17
2022-04-03T06:53:00,mcc,34.52
2022-04-03T06:54:00,mcc,33.50
2022-04-03T06:55:00,mcc,32.95
2022-04-03T06:56:00,mcc,31.85
2022-04-03T06:57:00,mcc,33.40
2022-04-03T06:58:00,mcc,34.66
2022-04-03T06:59:00,mcc,36.99
2022-04-03T07:00:00,mcc,37.48
2022-04-03T07:01:00,mcc,34.01
2022-04-03T07:02:00,mcc,35.52
2022-04-03T07:03:00,mcc,42.89
2022-04-03T07:04:00,mcc,36.14
2022-04-03T07:05:00,mcc,38.02
2022-04-03T07:06:00,mcc,36.72
2022-04-03T07:07:00,mcc,36.52
2022-04-03T07:08:00,mcc,37.23
2022-04-03T07:09:00,mcc,35.92
2022-04-03T07:10:00,mcc,36.43
2022-04-03T07:11:00,mcc,36.42
2022-04-03T07:12:00,mcc,38.00
2022-04-03T07:13:00,mcc,42.67
2022-04-03T07:14:00,mcc,37.34
2022-04-03T07:15:00,mcc,46.41
2022-04-03T07:16:00,mcc,56.03
2022-04-03T07:17:00,mcc,54.19
2022-04-03T07:18:00,mcc,53.62
2022-04-03T07:19:00,mcc,45.26
2022-04-03T07:20:00,mcc,43.94
2022-04-03T07:21:00,mcc,34.45
2022-04-03T07:22:00,mcc,43.28
2022-04-03T07:23:00,mcc,35.71
2022-04-03T07:24:00,mcc,38.60
2022-04-03T07:25:00,mcc,36.23
2022-04-03T07:26:00,mcc,35.96
2022-04-03T07:27:00,mcc,37.08
2022-04-03T07:28:00,mcc,35.56
2022-04-03T07:29:00,mcc,35.19
2022-04-03T07:30:00,mcc,35.36
2022-04-03T07:31:00,mcc,35.17
2022-04-03T07:32:00,mcc,39.95
2022-04-03T07:33:00,mcc,36.72
2022-04-03T07:34:00,mcc,35.88
2022-04-03T07:35:00,mcc,36.28
2022-04-03T07:36:00,mcc,33.29
2022-04-03T07:37:00,mcc,34.05
2022-04-03T07:38:00,mcc,36.27
2022-04-03T07:39:00,mcc,34.52
2022-04-03T07:40:00,mcc,34.73
2022-04-03T07:41:00,mcc,34.80
2022-04-03T07:42:00,mcc,34.45
2022-04-03T07:43:00,mcc,37.03
2022-04-03T07:44:00,mcc,36.22
2022-04-03T07:45:00,mcc,36.99
2022-04-03T07:46:00,mcc,39.29
2022-04-03T07:47:00,mcc,37.29
2022-04-03T07:48:00,mcc,35.98
2022-04-03T07:49:00,mcc,35.77
2022-04-03T07:50:00,mcc,35.39
2022-04-03T07:51:00,mcc,35.66
2022-04-03T07:52:00,mcc,34.89
2022-04-03T07:53:00,mcc,33.53
2022-04-03T07:54:00,mcc,35.54
2022-04-03T07:55:00,mcc,33.39
2022-04-03T07:56:00,mcc,36.61
2022-04-03T07:57:00,mcc,37.16
2022-04-03T07:58:00,mcc,36.58
2022-04-03T07:59:00,mcc,47.22
2022-04-03T08:00:00,mcc,34.91
2022-04-03T08:01:00,mcc,36.50
2022-04-03T08:02:00,mcc,35.74
2022-04-03T08:03:00,mcc,33.08
2022-04-03T08:04:00,mcc,33.86
2022-04-03T08:05:00,mcc,36.26
2022-04-03T08:06:00,mcc,36.20
2022-04-03T08:07:00,mcc,37.23
2022-04-03T08:08:00,mcc,39.29
2022-04-03T08:09:00,mcc,36.34
2022-04-03T08:10:00,mcc,35.69
2022-04-03T08:11:00,mcc,36.86
2022-04-03T08:12:00,mcc,35.60
2022-04-03T08:13:00,mcc,38.20
2022-04-03T08:14:00,mcc,36.57
2022-04-03T08:15:00,mcc,34.59
2022-04-03T08:16:00,mcc,35.56
2022-04-03T08:17:00,mcc,34.47
2022-04-03T08:18:00,mcc,34.87
2022-04-03T08:19:00,mcc,35.52
2022-04-03T08:20:00,mcc,36.58
2022-04-03T08:21:00,mcc,38.21
2022-04-03T08:22:00,mcc,35.90
2022-04-03T08:23:00,mcc,35.89
2022-04-03T08:24:00,mcc,38.71
2022-04-03T08:25:00,mcc,35.75
2022-04-03T08:26:00,mcc,35.02
2022-04-03T08:27:00,mcc,35.41
2022-04-03T08:28:00,mcc,35.61
2022-04-03T08:29:00,mcc,36.89
2022-04-03T08:30:00,mcc,35.05
2022-04-03T08:31:00,mcc,35.98
2022-04-03T08:32:00,mcc,38.50
2022-04-03T08:33:00,mcc,35.58
2022-04-03T08:34:00,mcc,37.52
2022-04-03T08:35:00,mcc,36.90
2022-04-03T08:36:00,mcc,45.58
2022-04-03T08:37:00,mcc,39.17
2022-04-03T08:38:00,mcc,36.99
2022-04-03T08:39:00,mcc,37.95
2022-04-03T08:40:00,mcc,40.12
2022-04-03T08:41:00,mcc,36.54
2022-04-03T08:42:00,mcc,37.28
2022-04-03T08:43:00,mcc,36.57
2022-04-03T08:44:00,mcc,34.34
2022-04-03T08:45:00,mcc,35.82
2022-04-03T08:46:00,mcc,34.49
2022-04-03T08:47:00,mcc,34.76
2022-04-03T08:48:00,mcc,37.96
2022-04-03T08:49:00,mcc,37.78
2022-04-03T08:50:00,mcc,37.27
2022-04-03T08:51:00,mcc,36.59
2022-04-03T08:52:00,mcc,37.04
2022-04-03T08:53:00,mcc,38.01
2022-04-03T08:54:00,mcc,36.41
2022-04-03T08:55:00,mcc,43.39
2022-04-03T08:56:00,mcc,34.57
2022-04-03T08:57:00,mcc,35.32
2022-04-03T08:58:00,mcc,35.80
2022-04-03T08:59:00,mcc,37.18
2022-04-03T09:00:00,mcc,36.10
2022-04-03T09:01:00,mcc,37.48
2022-04-03T09:02:00,mcc,40.13
2022-04-03T09:03:00,mcc,41.00
2022-04-03T09:04:00,mcc,40.50
2022-04-03T09:05:00,mcc,39.44
2022-04-03T09:06:00,mcc,39.38
2022-04-03T09:07:00,mcc,40.77
2022-04-03T09:08:00,mcc,37.23
2022-04-03T09:09:00,mcc,35.48
2022-04-03T09:10:00,mcc,36.33
2022-04-03T09:11:00,mcc,34.35
2022-04-03T09:12:00,mcc,33.84
2022-04-03T09:13:00,mcc,34.55
2022-04-03T09:14:00,mcc,34.20
2022-04-03T09:15:00,mcc,35.86
2022-04-03T09:16:00,mcc,35.88
2022-04-03T09:17:00,mcc,36.51
2022-04-03T09:18:00,mcc,38.26
2022-04-03T09:19:00,mcc,36.06
2022-04-03T09:20:00,mcc,36.13
2022-04-03T09:21:00,mcc,34.56
2022-04-03T09:22:00,mcc,34.13
2022-04-03T09:23:00,mcc,36.02
2022-04-03T09:24:00,mcc,35.30
2022-04-03T09:25:00,mcc,36.35
2022-04-03T09:26:00,mcc,37.63
2022-04-03T09:27:00,mcc,34.87
2022-04-03T09:28:00,mcc,36.26
2022-04-03T09:29:00,mcc,35.83
2022-04-03T09:30:00,mcc,35.04
2022-04-03T09:31:00,mcc,46.28
2022-04-03T09:32:00,mcc,37.16
2022-04-03T09:33:00,mcc,36.31
2022-04-03T09:34:00,mcc,34.50
2022-04-03T09:35:00,mcc,35.56
2022-04-03T09:36:00,mcc,34.55
2022-04-03T09:37:00,mcc,36.08
2022-04-03T09:38:00,mcc,35.36
2022-04-03T09:39:00,mcc,35.55
2022-04-03T09:40:00,mcc,36.28
2022-04-03T09:41:00,mcc,34.45
2022-04-03T09:42:00,mcc,32.71
2022-04-03T09:43:00,mcc,34.28
2022-04-03T09:44:00,mcc,33.91
2022-04-03T09:45:00,mcc,37.65
2022-04-03T09:46:00,mcc,36.42
2022-04-03T09:47:00,mcc,37.30
2022-04-03T09:48:00,mcc,33.27
2022-04-03T09:49:00,mcc,34.48
2022-04-03T09:50:00,mcc,44.12
2022-04-03T09:51:00,mcc,33.78
2022-04-03T09:52:00,mcc,35.72
2022-04-03T09:53:00,mcc,38.99
2022-04-03T09:54:00,mcc,35.69
2022-04-03T09:55:00,mcc,35.79
2022-04-03T09:56:00,mcc,34.71
2022-04-03T09:57:00,mcc,35.16
2022-04-03T09:58:00,mcc,37.93
2022-04-03T09:59:00,mcc,36.88
2022-04-03T10:00:00,mcc,36.32
2022-04-03T10:01:00,mcc,40.63
2022-04-03T10:02:00,mcc,38.12
2022-04-03T10:03:00,mcc,34.93
2022-04-03T10:04:00,mcc,37.39
2022-04-03T10:05:00,mcc,34.97
2022-04-03T10:06:00,mcc,35.14
2022-04-03T10:07:00,mcc,37.40
2022-04-03T10:08:00,mcc,37.07
2022-04-03T10:09:00,mcc,47.57
2022-04-03T10:10:00,mcc,38.82
2022-04-03T10:11:00,mcc,37.93
2022-04-03T10:12:00,mcc,39.34
2022-04-03T10:13:00,mcc,36.81
2022-04-03T10:14:00,mcc,37.63
2022-04-03T10:15:00,mcc,37.25
2022-04-03T10:16:00,mcc,37.18
2022-04-03T10:17:00,mcc,38.90
2022-04-03T10:18:00,mcc,36.67
2022-04-03T10:19:00,mcc,36.18
2022-04-03T10:20:00,mcc,40.37
2022-04-03T10:21:00,mcc,36.90
2022-04-03T10:22:00,mcc,40.99
2022-04-03T10:23:00,mcc,39.08
2022-04-03T10:24:00,mcc,38.04
2022-04-03T10:25:00,mcc,40.41
2022-04-03T10:26:00,mcc,37.79
2022-04-03T10:27:00,mcc,38.22
2022-04-03T10:28:00,mcc,47.27
2022-04-03T10:29:00,mcc,38.50
2022-04-03T10:30:00,mcc,37.06
2022-04-03T10:31:00,mcc,39.01
2022-04-03T10:32:00,mcc,37.36
2022-04-03T10:33:00,mcc,37.68
2022-04-03T10:34:00,mcc,33.82
2022-04-03T10:35:00,mcc,40.10
2022-04-03T10:36:00,mcc,47.24
2022-04-03T10:37:00,mcc,38.79
2022-04-03T10:38:00,mcc,39.30
2022-04-03T10:39:00,mcc,39.05
2022-04-03T10:40:00,mcc,38.20
2022-04-03T10:41:00,mcc,37.98
2022-04-03T10:42:00,mcc,37.40
2022-04-03T10:43:00,mcc,35.37
2022-04-03T10:44:00,mcc,35.75
2022-04-03T10:45:00,mcc,36.02
2022-04-03T10:46:00,mcc,35.69
2022-04-03T10:47:00,mcc,39.24
2022-04-03T10:48:00,mcc,37.84
2022-04-03T10:49:00,mcc,38.75
2022-04-03T10:50:00,mcc,37.56
2022-04-03T10:51:00,mcc,39.61
2022-04-03T10:52:00,mcc,38.74
2022-04-03T10:53:00,mcc,38.99
2022-04-03T10:54:00,mcc,38.55
2022-04-03T10:55:00,mcc,40.78
2022-04-03T10:56:00,mcc,34.65
2022-04-03T10:57:00,mcc,34.70
2022-04-03T10:58:00,mcc,38.44
2022-04-03T10:59:00,mcc,37.84
2022-04-03T11:00:00,mcc,37.42
2022-04-03T11:01:00,mcc,35.41
2022-04-03T11:02:00,mcc,35.73
2022-04-03T11:03:00,mcc,39.06
2022-04-03T11:04:00,mcc,38.06
2022-04-03T11:05:00,mcc,38.74
2022-04-03T11:06:00,mcc,47.17
2022-04-03T11:07:00,mcc,36.86
2022-04-03T11:08:00,mcc,37.10
2022-04-03T11:09:00,mcc,38.19
2022-04-03T11:10:00,mcc,35.86
2022-04-03T11:11:00,mcc,35.90
2022-04-03T11:12:00,mcc,35.85
2022-04-03T11:13:00,mcc,37.21
2022-04-03T11:14:00,mcc,37.95
2022-04-03T11:15:00,mcc,36.01
2022-04-03T11:16:00,mcc,35.40
2022-04-03T11:17:00,mcc,38.56
2022-04-03T11:18:00,mcc,37.64
2022-04-03T11:19:00,mcc,38.38
2022-04-03T11:20:00,mcc,39.27
2022-04-03T11:21:00,mcc,49.39
2022-04-03T11:22:00,mcc,51.48
2022-04-03T11:23:00,mcc,46.29
2022-04-03T11:24:00,mcc,46.50
2022-04-03T11:25:00,mcc,45.78
2022-04-03T11:26:00,mcc,37.99
2022-04-03T11:27:00,mcc,38.37
2022-04-03T11:28:00,mcc,40.48
2022-04-03T11:29:00,mcc,39.06
2022-04-03T11:30:00,mcc,40.93
2022-04-03T11:31:00,mcc,40.56
2022-04-03T11:32:00,mcc,40.72
2022-04-03T11:33:00,mcc,43.61
2022-04-03T11:34:00,mcc,39.83
2022-04-03T11:35:00,mcc,42.60
2022-04-03T11:36:00,mcc,40.92
2022-04-03T11:37:00,mcc,44.03
2022-04-03T11:38:00,mcc,42.57
2022-04-03T11:39:00,mcc,39.17
2022-04-03T11:40:00,mcc,37.40
2022-04-03T11:41:00,mcc,36.98
2022-04-03T11:42:00,mcc,41.10
2022-04-03T11:43:00,mcc,39.19
2022-04-03T11:44:00,mcc,47.48
2022-04-03T11:45:00,mcc,38.34
2022-04-03T11:46:00,mcc,48.70
2022-04-03T11:47:00,mcc,49.09
2022-04-03T11:48:00,mcc,46.66
2022-04-03T11:49:00,mcc,48.91
2022-04-03T11:50:00,mcc,37.77
2022-04-03T11:51:00,mcc,39.49
2022-04-03T11:52:00,mcc,37.03
2022-04-03T11:53:00,mcc,36.28
2022-04-03T11:54:00,mcc,36.00
2022-04-03T11:55:00,mcc,35.61
2022-04-03T11:56:00,mcc,39.14
2022-04-03T11:57:00,mcc,41.44
2022-04-03T11:58:00,mcc,44.28
2022-04-03T11:59:00,mcc,41.96
2022-04-03T12:00:00,mcc,40.78
2022-04-03T12:01:00,mcc,40.79
2022-04-03T12:02:00,mcc,43.31
2022-04-03T12:03:00,mcc,53.90
2022-04-03T12:04:00,mcc,44.71
2022-04-03T12:05:00,mcc,47.16
2022-04-03T12:06:00,mcc,43.83
2022-04-03T12:07:00,mcc,42.57
2022-04-03T12:08:00,mcc,46.05
2022-04-03T12:09:00,mcc,47.80
2022-04-03T12:10:00,mcc,47.85
2022-04-03T12:11:00,mcc,48.36
2022-04-03T12:12:00,mcc,47.84
2022-04-03T12:13:00,mcc,48.60
2022-04-03T12:14:00,mcc,46.51
2022-04-03T12:15:00,mcc,46.42
2022-04-03T12:16:00,mcc,43.22
2022-04-03T12:17:00,mcc,46.70
2022-04-03T12:18:00,mcc,47.92
2022-04-03T12:19:00,mcc,47.16
2022-04-03T12:20:00,mcc,43.26
2022-04-03T12:21:00,mcc,53.12
2022-04-03T12:22:00,mcc,44.90
2022-04-03T12:23:00,mcc,43.45
2022-04-03T12:24:00,mcc,45.76
2022-04-03T12:25:00,mcc,46.66
2022-04-03T12:26:00,mcc,50.12
2022-04-03T12:27:00,mcc,47.98
2022-04-03T12:28:00,mcc,46.50
2022-04-03T12:29:00,mcc,45.94
2022-04-03T12:30:00,mcc,40.65
2022-04-03T12:31:00,mcc,44.17
2022-04-03T12:32:00,mcc,42.12
2022-04-03T12:33:00,mcc,42.88
2022-04-03T12:34:00,mcc,44.39
2022-04-03T12:35:00,mcc,43.93
2022-04-03T12:36:00,mcc,47.26
2022-04-03T12:37:00,mcc,46.26
2022-04-03T12:38:00,mcc,47.54
2022-04-03T12:39:00,mcc,45.81
2022-04-03T12:40:00,mcc,43.01
2022-04-03T12:41:00,mcc,42.37
2022-04-03T12:42:00,mcc,42.94
2022-04-03T12:43:00,mcc,41.32
2022-04-03T12:44:00,mcc,41.10
2022-04-03T12:45:00,mcc,40.46
2022-04-03T12:46:00,mcc,43.45
2022-04-03T12:47:00,mcc,41.83
2022-04-03T12:48:00,mcc,43.79
2022-04-03T12:49:00,mcc,44.66
2022-04-03T12:50:00,mcc,43.93
2022-04-03T12:51:00,mcc,43.21
2022-04-03T12:52:00,mcc,43.61
2022-04-03T12:53:00,mcc,44.38
2022-04-03T12:54:00,mcc,42.12
2022-04-03T12:55:00,mcc,45.74
2022-04-03T12:56:00,mcc,43.82
2022-04-03T12:57:00,mcc,46.69
2022-04-03T12:58:00,mcc,45.75
2022-04-03T12:59:00,mcc,44.44
2022-04-03T13:00:00,mcc,46.91
2022-04-03T13:01:00,mcc,45.38
2022-04-03T13:02:00,mcc,47.59
2022-04-03T13:03:00,mcc,45.59
2022-04-03T13:04:00,mcc,49.63
2022-04-03T13:05:00,mcc,46.48
2022-04-03T13:06:00,mcc,47.33
2022-04-03T13:07:00,mcc,45.12
2022-04-03T13:08:00,mcc,45.95
2022-04-03T13:09:00,mcc,43.87
2022-04-03T13:10:00,mcc,45.87
2022-04-03T13:11:00,mcc,43.83
2022-04-03T13:12:00,mcc,45.92
2022-04-03T13:13:00,mcc,43.86
2022-04-03T13:14:00,mcc,45.24
2022-04-03T13:15:00,mcc,42.59
2022-04-03T13:16:00,mcc,42.26
2022-04-03T13:17:00,mcc,42.81
2022-04-03T13:18:00,mcc,49.81